Terug naar catalogus

FENGYUN 1C DEB

ActiefPO
NORAD 31665·DEBRIS·🇨🇳 China

Gelanceerd May 10, 1999 vanaf Taiyuan Satellite Launch Center

Loading…

Volgende Passages (komende 24 uur)

TLE

VerouderendSource: Space-Track

Epoch: Sep 8, 2026, 00:12 UTC

1 31665U 99025CBX 26251.00875158  .00000965  00000-0  76539-3 0  9999
2 31665  98.4329 272.3114 0187527 167.9162 192.6589 13.85506299969192

Volg FENGYUN 1C DEB in realtime met AllMySat

Download on the App Store